ETD3KP OERK-OMAA

Flight info

Callsign ETD3KP
Flight time 1h 17m
Altitude 37000
Route OTALI DCT HSA P693 ULBAM DCT GIDOB
Aircraft A320/M-SDE3FGHIRWY/LB1

Departure

Time 2026-05-05 14:35
Airport King Khalid International Airport (OERK)

Arrival

Time 2026-05-05 15:52
Airport Zayed International Airport (OMAA)
Time Latitude Longitude Altitude Speed Heading
2026-05-05 14:15 24.95886 46.70541 2037 ft 0 kts 265°
2026-05-05 14:19 24.95886 46.70542 2037 ft 0 kts 265°
2026-05-05 14:25 24.95888 46.70562 2030 ft 3 kts 265°
2026-05-05 14:25 24.95890 46.70588 2030 ft 3 kts 264°
2026-05-05 14:25 24.95892 46.70609 2032 ft 3 kts 263°
2026-05-05 14:25 24.95895 46.70635 2033 ft 3 kts 265°
2026-05-05 14:26 24.95896 46.70660 2033 ft 3 kts 283°
2026-05-05 14:26 24.95887 46.70679 2034 ft 2 kts 330°
2026-05-05 14:26 24.95868 46.70691 2037 ft 3 kts 330°
2026-05-05 14:26 24.95847 46.70704 2037 ft 3 kts 330°
2026-05-05 14:27 24.95826 46.70717 2039 ft 3 kts 330°
2026-05-05 14:27 24.95806 46.70730 2037 ft 3 kts 330°
2026-05-05 14:27 24.95785 46.70743 2038 ft 3 kts 330°
2026-05-05 14:27 24.95773 46.70751 2034 ft 0 kts 330°
2026-05-05 14:29 24.95783 46.70745 2037 ft 3 kts 332°
2026-05-05 14:29 24.95817 46.70736 2041 ft 7 kts 359°
2026-05-05 14:30 24.95862 46.70774 2034 ft 10 kts 59°
2026-05-05 14:30 24.95904 46.70852 2034 ft 14 kts 60°
2026-05-05 14:30 24.95975 46.70928 2031 ft 16 kts 359°
2026-05-05 14:30 24.96085 46.70873 2037 ft 19 kts 326°
2026-05-05 14:31 24.96211 46.70792 2037 ft 23 kts 330°
2026-05-05 14:31 24.96358 46.70697 2033 ft 26 kts 329°
2026-05-05 14:31 24.96522 46.70591 2030 ft 29 kts 330°
2026-05-05 14:31 24.96708 46.70478 2034 ft 32 kts 331°
2026-05-05 14:32 24.96907 46.70353 2029 ft 34 kts 331°
2026-05-05 14:32 24.97119 46.70216 2031 ft 35 kts 328°
2026-05-05 14:32 24.97272 46.70119 2028 ft 13 kts 331°
2026-05-05 14:32 24.97359 46.70072 2027 ft 15 kts 341°
2026-05-05 14:33 24.97445 46.70129 2026 ft 17 kts 62°
2026-05-05 14:33 24.97505 46.70247 2027 ft 19 kts 66°
2026-05-05 14:33 24.97491 46.70322 2026 ft 8 kts 139°
2026-05-05 14:33 24.97439 46.70354 2023 ft 12 kts 146°
2026-05-05 14:34 24.97187 46.70517 2026 ft 76 kts 151°
2026-05-05 14:34 24.96547 46.70922 2032 ft 133 kts 150°
2026-05-05 14:34 24.95608 46.71505 2038 ft 176 kts 150°
2026-05-05 14:34 24.94534 46.72183 2599 ft 171 kts 147°
2026-05-05 14:35 24.93557 46.72910 3222 ft 173 kts 142°
2026-05-05 14:35 24.92648 46.73906 3581 ft 195 kts 134°
2026-05-05 14:35 24.91751 46.75036 4047 ft 196 kts 134°
2026-05-05 14:35 24.90826 46.76175 4425 ft 205 kts 136°
2026-05-05 14:36 24.89842 46.77407 4666 ft 225 kts 130°
2026-05-05 14:36 24.88821 46.78820 4859 ft 249 kts 126°
2026-05-05 14:36 24.88317 46.80735 5093 ft 278 kts 89°
2026-05-05 14:36 24.88818 46.82846 5607 ft 292 kts 66°
2026-05-05 14:37 24.89793 46.84844 6229 ft 298 kts 60°
2026-05-05 14:37 24.90893 46.86772 6938 ft 299 kts 58°
2026-05-05 14:37 24.91998 46.88734 7609 ft 304 kts 59°
2026-05-05 14:37 24.93063 46.90756 8221 ft 306 kts 61°
2026-05-05 14:38 24.94076 46.92824 8948 ft 309 kts 63°
2026-05-05 14:38 24.95056 46.94942 9685 ft 311 kts 64°
2026-05-05 14:38 24.96025 46.97108 10220 ft 322 kts 65°
2026-05-05 14:38 24.96718 46.99505 10357 ft 342 kts 82°
2026-05-05 14:39 24.97094 47.02174 10784 ft 352 kts 83°
2026-05-05 14:39 24.97447 47.04830 11363 ft 357 kts 83°
2026-05-05 14:39 24.97802 47.07550 11994 ft 360 kts 83°
2026-05-05 14:39 24.98162 47.10290 12646 ft 363 kts 83°
2026-05-05 14:40 24.98526 47.13058 13286 ft 366 kts 83°
2026-05-05 14:40 24.98892 47.15835 13916 ft 369 kts 83°
2026-05-05 14:40 24.99145 47.17741 14301 ft 371 kts 83°
2026-05-05 14:40 24.99647 47.21508 15013 ft 378 kts 83°
2026-05-05 14:41 24.99900 47.23416 15399 ft 380 kts 83°
2026-05-05 14:41 25.00284 47.26311 15966 ft 384 kts 82°
2026-05-05 14:41 25.00669 47.29223 16530 ft 388 kts 82°
2026-05-05 14:41 25.01058 47.32184 17099 ft 392 kts 82°
2026-05-05 14:42 25.01449 47.35162 17662 ft 395 kts 82°
2026-05-05 14:42 25.01847 47.38197 18220 ft 399 kts 82°
2026-05-05 14:42 25.02381 47.42276 18893 ft 404 kts 82°
2026-05-05 14:42 25.02649 47.44315 19233 ft 407 kts 82°
2026-05-05 14:43 25.03056 47.47416 19746 ft 410 kts 82°
2026-05-05 14:43 25.03465 47.50541 20271 ft 414 kts 82°
2026-05-05 14:43 25.03877 47.53702 20800 ft 417 kts 82°
2026-05-05 14:43 25.04290 47.56873 21337 ft 420 kts 83°
2026-05-05 14:44 25.04705 47.60073 21841 ft 423 kts 83°
2026-05-05 14:44 25.05122 47.63301 22343 ft 427 kts 83°
2026-05-05 14:44 25.05540 47.66559 22850 ft 431 kts 83°
2026-05-05 14:44 25.05962 47.69846 23347 ft 435 kts 83°
2026-05-05 14:45 25.06388 47.73157 23746 ft 438 kts 83°
2026-05-05 14:45 25.06822 47.76504 24118 ft 443 kts 83°
2026-05-05 14:45 25.07264 47.79886 24481 ft 447 kts 83°
2026-05-05 14:45 25.07707 47.83290 24844 ft 451 kts 83°
2026-05-05 14:46 25.08150 47.86728 25206 ft 455 kts 83°
2026-05-05 14:46 25.08594 47.90199 25556 ft 459 kts 83°
2026-05-05 14:46 25.09036 47.93679 25898 ft 463 kts 83°
2026-05-05 14:46 25.09483 47.97202 26227 ft 467 kts 83°
2026-05-05 14:47 25.09937 48.00787 26564 ft 470 kts 83°
2026-05-05 14:47 25.10389 48.04379 26874 ft 475 kts 83°
2026-05-05 14:47 25.10841 48.07983 27180 ft 479 kts 83°
2026-05-05 14:47 25.11301 48.11626 27499 ft 482 kts 83°
2026-05-05 14:48 25.11769 48.15307 27807 ft 486 kts 83°
2026-05-05 14:48 25.12236 48.19005 28120 ft 489 kts 83°
2026-05-05 14:48 25.12707 48.22742 28435 ft 493 kts 83°
2026-05-05 14:48 25.13179 48.26508 28741 ft 497 kts 83°
2026-05-05 14:49 25.13643 48.30252 29037 ft 500 kts 83°
2026-05-05 14:49 25.14121 48.34113 29338 ft 504 kts 83°
2026-05-05 14:49 25.14594 48.37912 29637 ft 508 kts 83°
2026-05-05 14:49 25.15085 48.41828 29925 ft 511 kts 83°
2026-05-05 14:50 25.15566 48.45678 30175 ft 514 kts 83°
2026-05-05 14:50 25.16053 48.49603 30427 ft 517 kts 83°
2026-05-05 14:50 25.16539 48.53536 30690 ft 519 kts 83°
2026-05-05 14:50 25.17025 48.57500 30958 ft 522 kts 83°
2026-05-05 14:51 25.17511 48.61469 31328 ft 520 kts 83°
2026-05-05 14:51 25.17996 48.65421 31774 ft 518 kts 83°
2026-05-05 14:51 25.18477 48.69352 32165 ft 517 kts 84°
2026-05-05 14:51 25.18958 48.73292 32558 ft 517 kts 84°
2026-05-05 14:52 25.19440 48.77227 32954 ft 516 kts 84°
2026-05-05 14:52 25.19917 48.81144 33350 ft 516 kts 84°
2026-05-05 14:52 25.20395 48.85071 33744 ft 515 kts 84°
2026-05-05 14:52 25.20872 48.88996 34082 ft 515 kts 84°
2026-05-05 14:53 25.21340 48.92902 34405 ft 514 kts 84°
2026-05-05 14:53 25.21807 48.96830 34736 ft 513 kts 84°
2026-05-05 14:53 25.22270 49.00727 35062 ft 512 kts 84°
2026-05-05 14:53 25.22736 49.04630 35383 ft 512 kts 84°
2026-05-05 14:54 25.23200 49.08517 35668 ft 512 kts 85°
2026-05-05 14:54 25.23667 49.12418 35751 ft 512 kts 84°
2026-05-05 14:54 25.24601 49.20200 35761 ft 511 kts 84°
2026-05-05 14:55 25.25536 49.28023 35757 ft 512 kts 85°
2026-05-05 14:55 25.26447 49.35796 35758 ft 510 kts 85°
2026-05-05 14:56 25.27246 49.43589 35753 ft 507 kts 92°
2026-05-05 14:56 25.26943 49.47431 35754 ft 499 kts 107°
2026-05-05 14:56 25.25980 49.51079 35758 ft 492 kts 117°
2026-05-05 14:57 25.22914 49.57702 35752 ft 483 kts 126°
2026-05-05 14:57 25.19536 49.64150 35748 ft 483 kts 126°
2026-05-05 14:58 25.16185 49.70534 35761 ft 483 kts 126°
2026-05-05 14:58 25.12787 49.76929 35756 ft 483 kts 126°
2026-05-05 14:59 25.09367 49.83325 35756 ft 484 kts 126°
2026-05-05 14:59 25.05952 49.89718 35756 ft 483 kts 126°
2026-05-05 15:00 25.03117 49.95026 35766 ft 483 kts 126°
2026-05-05 15:00 24.99128 50.02493 35768 ft 484 kts 126°
2026-05-05 15:01 24.95712 50.08870 35751 ft 485 kts 126°
2026-05-05 15:01 24.92280 50.15275 35768 ft 485 kts 126°
2026-05-05 15:02 24.88839 50.21683 35755 ft 485 kts 126°
2026-05-05 15:02 24.85396 50.28089 35767 ft 486 kts 126°
2026-05-05 15:03 24.81976 50.34442 35771 ft 485 kts 126°
2026-05-05 15:03 24.78535 50.40827 35756 ft 484 kts 126°
2026-05-05 15:04 24.75098 50.47197 35756 ft 484 kts 126°
2026-05-05 15:04 24.71673 50.53535 35758 ft 484 kts 126°
2026-05-05 15:05 24.66506 50.63071 35757 ft 484 kts 126°
2026-05-05 15:06 24.63052 50.69433 35751 ft 484 kts 126°
2026-05-05 15:06 24.59607 50.75776 35754 ft 484 kts 126°
2026-05-05 15:07 24.56205 50.82191 35753 ft 487 kts 120°
2026-05-05 15:07 24.54981 50.85671 35750 ft 493 kts 109°
2026-05-05 15:07 24.54317 50.89380 35753 ft 498 kts 98°
2026-05-05 15:08 24.54513 50.96999 35754 ft 503 kts 86°
2026-05-05 15:08 24.55096 51.04660 35754 ft 504 kts 87°
2026-05-05 15:09 24.55666 51.12365 35756 ft 504 kts 87°
2026-05-05 15:09 24.56237 51.20026 35760 ft 502 kts 86°
2026-05-05 15:10 24.56808 51.27647 35760 ft 500 kts 86°
2026-05-05 15:10 24.57379 51.35263 35759 ft 500 kts 86°
2026-05-05 15:11 24.57932 51.42847 35759 ft 500 kts 87°
2026-05-05 15:11 24.58486 51.50471 35763 ft 500 kts 87°
2026-05-05 15:12 24.59043 51.58084 35765 ft 500 kts 87°
2026-05-05 15:12 24.59591 51.65657 35766 ft 500 kts 87°
2026-05-05 15:13 24.60128 51.73150 35767 ft 500 kts 87°
2026-05-05 15:13 24.60659 51.80669 35766 ft 500 kts 87°
2026-05-05 15:14 24.61199 51.88286 35765 ft 500 kts 87°
2026-05-05 15:14 24.61740 51.95916 35768 ft 500 kts 87°
2026-05-05 15:15 24.62270 52.03535 35772 ft 500 kts 87°
2026-05-05 15:15 24.62791 52.11130 35771 ft 501 kts 87°
2026-05-05 15:16 24.63318 52.18757 35773 ft 501 kts 87°
2026-05-05 15:16 24.63833 52.26372 35764 ft 500 kts 87°
2026-05-05 15:17 24.64345 52.34009 35772 ft 499 kts 87°
2026-05-05 15:17 24.64855 52.41554 35772 ft 499 kts 87°
2026-05-05 15:18 24.65364 52.49157 35775 ft 499 kts 87°
2026-05-05 15:18 24.65864 52.56731 35775 ft 496 kts 87°
2026-05-05 15:19 24.66359 52.64301 35605 ft 497 kts 87°
2026-05-05 15:19 24.66606 52.68115 34736 ft 505 kts 86°
2026-05-05 15:19 24.66857 52.71954 34228 ft 502 kts 86°
2026-05-05 15:19 24.67109 52.75799 33646 ft 501 kts 86°
2026-05-05 15:20 24.67354 52.79600 33064 ft 499 kts 86°
2026-05-05 15:20 24.67593 52.83386 32509 ft 496 kts 86°
2026-05-05 15:20 24.67830 52.87165 31940 ft 494 kts 86°
2026-05-05 15:20 24.68050 52.90675 31416 ft 492 kts 86°
2026-05-05 15:21 24.68284 52.94387 30864 ft 490 kts 86°
2026-05-05 15:21 24.68513 52.98004 30333 ft 487 kts 86°
2026-05-05 15:21 24.68746 53.01717 29890 ft 482 kts 86°
2026-05-05 15:21 24.68979 53.05381 29293 ft 479 kts 86°
2026-05-05 15:22 24.69212 53.09021 28822 ft 472 kts 86°
2026-05-05 15:22 24.69439 53.12615 28326 ft 467 kts 86°
2026-05-05 15:22 24.69656 53.16095 27918 ft 460 kts 86°
2026-05-05 15:22 24.69870 53.19589 27217 ft 451 kts 86°
2026-05-05 15:23 24.70078 53.23025 26773 ft 437 kts 86°
2026-05-05 15:23 24.70275 53.26249 26339 ft 425 kts 86°
2026-05-05 15:23 24.70472 53.29470 25897 ft 414 kts 86°
2026-05-05 15:23 24.70662 53.32591 25462 ft 404 kts 86°
2026-05-05 15:24 24.70844 53.35632 25026 ft 394 kts 86°
2026-05-05 15:24 24.71024 53.38608 24599 ft 384 kts 86°
2026-05-05 15:24 24.71201 53.41503 24168 ft 375 kts 86°
2026-05-05 15:24 24.71370 53.44310 23750 ft 367 kts 85°
2026-05-05 15:25 24.71539 53.47123 23312 ft 365 kts 85°
2026-05-05 15:25 24.71650 53.48969 22981 ft 364 kts 85°
2026-05-05 15:25 24.71814 53.51732 22548 ft 360 kts 85°
2026-05-05 15:25 24.71975 53.54460 22115 ft 357 kts 86°
2026-05-05 15:26 24.72137 53.57180 21681 ft 357 kts 86°
2026-05-05 15:26 24.72298 53.59910 21251 ft 357 kts 86°
2026-05-05 15:26 24.72458 53.62625 20817 ft 356 kts 86°
2026-05-05 15:26 24.72618 53.65348 20388 ft 356 kts 86°
2026-05-05 15:27 24.72778 53.68068 19950 ft 356 kts 86°
2026-05-05 15:27 24.72938 53.70790 19516 ft 356 kts 86°
2026-05-05 15:27 24.73098 53.73526 19069 ft 356 kts 86°
2026-05-05 15:27 24.73257 53.76240 18638 ft 356 kts 85°
2026-05-05 15:28 24.73415 53.78976 18187 ft 357 kts 86°
2026-05-05 15:28 24.73567 53.81699 17711 ft 357 kts 86°
2026-05-05 15:28 24.73719 53.84402 17265 ft 355 kts 85°
2026-05-05 15:28 24.73874 53.87106 16824 ft 353 kts 85°
2026-05-05 15:29 24.74028 53.89786 16393 ft 350 kts 85°
2026-05-05 15:29 24.74179 53.92426 16179 ft 338 kts 84°
2026-05-05 15:29 24.74325 53.94984 15797 ft 333 kts 85°
2026-05-05 15:29 24.74451 53.97509 15386 ft 330 kts 89°
2026-05-05 15:30 24.74199 54.00001 14985 ft 329 kts 102°
2026-05-05 15:30 24.73424 54.02349 14750 ft 327 kts 115°
2026-05-05 15:30 24.72418 54.04555 14524 ft 326 kts 116°
2026-05-05 15:30 24.71395 54.06807 14278 ft 325 kts 115°
2026-05-05 15:31 24.70388 54.09024 14035 ft 323 kts 115°
2026-05-05 15:31 24.69398 54.11206 13804 ft 322 kts 115°
2026-05-05 15:31 24.68402 54.13402 13562 ft 321 kts 115°
2026-05-05 15:31 24.67516 54.15351 13328 ft 320 kts 115°
2026-05-05 15:32 24.66524 54.17531 13085 ft 319 kts 115°
2026-05-05 15:32 24.65532 54.19706 12857 ft 317 kts 115°
2026-05-05 15:32 24.64545 54.21868 12623 ft 316 kts 114°
2026-05-05 15:32 24.63556 54.24030 12390 ft 316 kts 114°
2026-05-05 15:33 24.62574 54.26180 12167 ft 314 kts 116°
2026-05-05 15:33 24.61596 54.28318 11929 ft 312 kts 116°
2026-05-05 15:33 24.60621 54.30446 11701 ft 311 kts 116°
2026-05-05 15:33 24.59624 54.32552 11470 ft 310 kts 120°
2026-05-05 15:34 24.58280 54.34403 11238 ft 310 kts 134°
2026-05-05 15:34 24.56756 54.36071 11004 ft 309 kts 134°
2026-05-05 15:34 24.55239 54.37730 10773 ft 307 kts 134°
2026-05-05 15:34 24.53736 54.39374 10543 ft 302 kts 133°
2026-05-05 15:35 24.52262 54.40987 10324 ft 297 kts 134°
2026-05-05 15:35 24.50803 54.42581 10107 ft 293 kts 133°
2026-05-05 15:35 24.49371 54.44146 9896 ft 291 kts 133°
2026-05-05 15:35 24.47936 54.45717 9681 ft 290 kts 133°
2026-05-05 15:36 24.46503 54.47287 9450 ft 290 kts 133°
2026-05-05 15:36 24.45084 54.48840 9269 ft 289 kts 134°
2026-05-05 15:36 24.43676 54.50378 9162 ft 288 kts 134°
2026-05-05 15:36 24.42251 54.51939 9024 ft 286 kts 132°
2026-05-05 15:37 24.41009 54.53599 8923 ft 284 kts 126°
2026-05-05 15:37 24.39785 54.55334 8830 ft 280 kts 126°
2026-05-05 15:37 24.38619 54.56967 8728 ft 274 kts 127°
2026-05-05 15:37 24.37443 54.58607 8635 ft 273 kts 127°
2026-05-05 15:38 24.36269 54.60243 8534 ft 272 kts 126°
2026-05-05 15:38 24.35102 54.61871 8442 ft 272 kts 126°
2026-05-05 15:38 24.33936 54.63504 8337 ft 272 kts 126°
2026-05-05 15:38 24.32768 54.65140 8253 ft 272 kts 126°
2026-05-05 15:39 24.31597 54.66779 8071 ft 271 kts 127°
2026-05-05 15:39 24.30442 54.68397 7772 ft 271 kts 126°
2026-05-05 15:39 24.29281 54.70024 7488 ft 270 kts 126°
2026-05-05 15:39 24.28126 54.71641 7201 ft 270 kts 126°
2026-05-05 15:40 24.26970 54.73255 6910 ft 270 kts 125°
2026-05-05 15:40 24.25803 54.74883 6602 ft 270 kts 126°
2026-05-05 15:40 24.24656 54.76484 6375 ft 266 kts 127°
2026-05-05 15:40 24.23522 54.78068 6171 ft 262 kts 127°
2026-05-05 15:41 24.22405 54.79628 6057 ft 261 kts 127°
2026-05-05 15:41 24.21279 54.81197 6022 ft 262 kts 127°
2026-05-05 15:41 24.20152 54.82769 6013 ft 262 kts 127°
2026-05-05 15:41 24.19032 54.84340 6012 ft 263 kts 127°
2026-05-05 15:42 24.17908 54.85920 6014 ft 263 kts 127°
2026-05-05 15:42 24.16784 54.87498 6016 ft 262 kts 127°
2026-05-05 15:42 24.15667 54.89070 6014 ft 262 kts 127°
2026-05-05 15:42 24.14544 54.90645 6016 ft 262 kts 127°
2026-05-05 15:43 24.13418 54.92217 6017 ft 260 kts 127°
2026-05-05 15:43 24.12340 54.93736 6015 ft 245 kts 124°
2026-05-05 15:43 24.11731 54.95411 6019 ft 237 kts 92°
2026-05-05 15:43 24.12054 54.97146 6022 ft 235 kts 59°
2026-05-05 15:44 24.13174 54.98426 6029 ft 235 kts 34°
2026-05-05 15:44 24.14503 54.99479 6024 ft 235 kts 37°
2026-05-05 15:44 24.15862 55.00421 6019 ft 235 kts 18°
2026-05-05 15:44 24.17486 55.00487 6006 ft 236 kts 343°
2026-05-05 15:45 24.18852 54.99502 5647 ft 240 kts 310°
2026-05-05 15:45 24.19870 54.98046 5288 ft 242 kts 307°
2026-05-05 15:45 24.20897 54.96576 4955 ft 243 kts 308°
2026-05-05 15:45 24.21928 54.95129 4708 ft 239 kts 308°
2026-05-05 15:46 24.22932 54.93724 4469 ft 235 kts 308°
2026-05-05 15:46 24.23936 54.92320 4225 ft 232 kts 308°
2026-05-05 15:46 24.24920 54.90941 3981 ft 228 kts 308°
2026-05-05 15:46 24.25893 54.89578 3740 ft 225 kts 308°
2026-05-05 15:47 24.26848 54.88240 3510 ft 221 kts 308°
2026-05-05 15:47 24.27482 54.87352 3355 ft 216 kts 309°
2026-05-05 15:47 24.28654 54.85707 3133 ft 197 kts 309°
2026-05-05 15:47 24.29484 54.84543 3041 ft 191 kts 308°
2026-05-05 15:48 24.30304 54.83394 3008 ft 191 kts 309°
2026-05-05 15:48 24.31114 54.82258 3011 ft 187 kts 309°
2026-05-05 15:48 24.31922 54.81125 3003 ft 191 kts 309°
2026-05-05 15:48 24.32738 54.79979 2855 ft 189 kts 309°
2026-05-05 15:49 24.33540 54.78852 2646 ft 180 kts 309°
2026-05-05 15:49 24.34285 54.77805 2440 ft 170 kts 310°
2026-05-05 15:49 24.35007 54.76792 2229 ft 167 kts 310°
2026-05-05 15:49 24.35725 54.75783 2022 ft 167 kts 310°
2026-05-05 15:50 24.36433 54.74788 1807 ft 164 kts 311°
2026-05-05 15:50 24.37133 54.73805 1605 ft 163 kts 310°
2026-05-05 15:50 24.37818 54.72842 1407 ft 162 kts 310°
2026-05-05 15:50 24.38521 54.71854 1197 ft 160 kts 311°
2026-05-05 15:51 24.39172 54.70936 998 ft 146 kts 311°
2026-05-05 15:51 24.39774 54.70089 842 ft 137 kts 312°
2026-05-05 15:51 24.40353 54.69274 688 ft 135 kts 310°
2026-05-05 15:51 24.40926 54.68470 527 ft 134 kts 310°
2026-05-05 15:52 24.41493 54.67671 355 ft 132 kts 308°
2026-05-05 15:52 24.42056 54.66880 183 ft 132 kts 310°
2026-05-05 15:52 24.42610 54.66108 55 ft 117 kts 307°
2026-05-05 15:52 24.42875 54.65721 55 ft 44 kts 307°
2026-05-05 15:53 24.43086 54.65433 56 ft 51 kts 309°
2026-05-05 15:53 24.43318 54.65121 55 ft 54 kts 308°
2026-05-05 15:53 24.43524 54.64898 58 ft 22 kts 349°
2026-05-05 15:53 24.43568 54.64891 57 ft 0 kts 347°
2026-05-05 15:54 24.43584 54.64884 56 ft 6 kts 336°
2026-05-05 15:54 24.43592 54.64880 57 ft 2 kts 335°
2026-05-05 15:54 24.43609 54.64872 57 ft 0 kts 335°
2026-05-05 15:55 24.43614 54.64869 60 ft 1 kts 335°
2026-05-05 15:55 24.43618 54.64867 54 ft 1 kts 335°
2026-05-05 15:55 24.43638 54.64857 58 ft 5 kts 335°
2026-05-05 15:56 24.43682 54.64835 55 ft 9 kts 335°
2026-05-05 15:56 24.43743 54.64795 57 ft 12 kts 322°
2026-05-05 15:56 24.43803 54.64719 56 ft 15 kts 308°
2026-05-05 15:56 24.43895 54.64692 61 ft 17 kts 29°
2026-05-05 15:57 24.43997 54.64771 61 ft 17 kts 12°
2026-05-05 15:57 24.44087 54.64699 57 ft 18 kts 307°
2026-05-05 15:57 24.44171 54.64586 57 ft 20 kts 310°
2026-05-05 15:57 24.44262 54.64456 60 ft 23 kts 302°
2026-05-05 15:58 24.44363 54.64313 62 ft 25 kts 311°
2026-05-05 15:58 24.44510 54.64209 57 ft 27 kts 335°
2026-05-05 15:58 24.44660 54.64159 56 ft 9 kts 350°
2026-05-05 15:58 24.44727 54.64143 62 ft 11 kts 14°
2026-05-05 15:59 24.44753 54.64215 61 ft 6 kts 83°
2026-05-05 15:59 24.44754 54.64225 61 ft 0 kts 83°